1491495822.81, -0.003900311799, -0.000397343297065, 0.000627425957372, 0.542317751557, -0.000585383823326, 0.00210691857646, 0.840170622294
1491495822.84, -0.0048713038012, -0.000354891148947, 0.000568404715693, 0.542322737637, -0.00061219152409, 0.00214646636219, 0.84016728462
1491495822.87, -0.00591192525669, -0.000323454061618, 0.000527753439175, 0.54229018086, -0.000565312124827, 0.00211793430442, 0.840188404181
1491495822.9, 0.00493884173172, -0.00551102783735, 0.000905327570553, 0.542311472835, 0.00107864382289, 0.00103448952342, 0.840176191516
1491495822.93, 0.00469017208287, -0.00580354747153, 0.000858363915668, 0.542304546362, 0.00110818352332, 0.00105644955728, 0.840180596562
1491495822.96, 0.000716510065839, 0.00224909422196, -0.00026332956184, 0.537997314999, 0.00660867043974, -9.13572715535e-05, 0.842920640501
1491495822.96, 0.000716510065839, 0.00224909422196, -0.00026332956184, 0.537997314999, 0.00660867043974, -9.13572715535e-05, 0.842920640501
1491495822.99, 0.000554887778881, 0.00222055825962, -0.000371225979779, 0.538002883726, 0.00660459661236, -0.00010087039564, 0.842917117059
1491495823.02, 0.000354465199311, 0.00222799675718, -0.000488307922611, 0.537976520618, 0.00663098243338, -0.000116811166493, 0.842933733867
1491495823.05, 0.000129030653254, 0.00221287902779, -0.000612735640265, 0.537981819699, 0.00663463492403, -0.000133528386067, 0.842930320645
1491495823.08, -0.00175480957743, 0.00220087506224, -0.000651693938357, 0.53799736267, 0.0068110922917, -0.000414458481264, 0.842918901796
1491495823.11, -0.0020352734428, 0.00216882139674, -0.000764513693949, 0.538002328417, 0.00680552936318, -0.000420120026558, 0.842915774492
1491495823.14, -0.00233126002515, 0.00218288090014, -0.000887356041871, 0.538008469185, 0.0068382866969, -0.000447070500011, 0.842911576056
1491495823.17, -0.00113466745167, 0.00329473261287, -0.000606473234179, 0.53807894923, 0.00676187618576, -0.000452140056832, 0.842867200095
1491495823.17, -0.00113466745167, 0.00329473261287, -0.000606473234179, 0.53807894923, 0.00676187618576, -0.000452140056832, 0.842867200095
1491495823.2, -0.00122833492189, 0.00348834451164, -0.000691897721949, 0.538104080829, 0.00677060804217, -0.000472426017077, 0.842851074553
1491495823.23, -0.00130534034266, 0.00370436784103, -0.000751894200366, 0.538099988478, 0.00679443618635, -0.000488430935713, 0.842853486362
1491495823.26, -0.00140914382061, 0.00390885953131, -0.000836166952905, 0.538080847854, 0.00679719033373, -0.000491869265295, 0.842865681731
1491495823.29, -0.00151802480218, 0.00409683280301, -0.000909791899372, 0.538079104302, 0.0068357601863, -0.000489121547048, 0.842866484478
1491495823.33, -0.00163083177811, 0.00438374761451, -0.00100512416604, 0.538077249866, 0.00686143866328, -0.000503262366814, 0.84286745136
1491495823.36, -0.0021502823125, 0.00415782482951, -0.00144574315034, 0.538166255195, 0.00680936208742, -0.000481916238683, 0.842811059558
1491495823.39, -0.00231647179641, 0.00439627599258, -0.00156505525242, 0.538171816982, 0.0068279967314, -0.000509740097441, 0.842807340993
1491495823.42, -0.000949488353964, 0.00421350349728, -0.00132661950682, 0.538220910246, 0.00674078122931, -0.000473775787611, 0.842776713714
1491495823.45, -0.00100697265253, 0.00436854308602, -0.00141504006369, 0.538229196143, 0.00674648343472, -0.000489719914308, 0.842771367309
1491495823.48, -0.00106505384605, 0.00456946765839, -0.00149755136781, 0.538223346402, 0.00677716286061, -0.000521577707141, 0.842774837906
1491495823.51, -0.00114402149644, 0.00485630983496, -0.00162280661027, 0.538213788812, 0.00679400393383, -0.000526050107516, 0.842780803242
1491495823.54, -0.000284116089287, 0.00388631045767, -0.00259869233875, 0.538345284283, 0.00678321276578, -0.000390737950889, 0.842696974148
1491495823.57, -0.000325692009734, 0.00407015170829, -0.00278133359927, 0.538345931926, 0.00682092387546, -0.000399418281846, 0.842696251945
1491495823.6, -0.000379424786689, 0.00420821860432, -0.00297002638643, 0.5383715825, 0.00682840919, -0.000412691868174, 0.84267979783
1491495823.63, -0.000242779559914, 0.00425334100748, -0.00264486472008, 0.538397372771, 0.00681981077794, -0.000390980277891, 0.842663400361
1491495823.66, -0.000279984900565, 0.00442069838137, -0.00279410856897, 0.538387267126, 0.0068341608169, -0.00038531901097, 0.842669743359
1491495823.69, -0.000326004721682, 0.0046401909631, -0.00295871408176, 0.538365716341, 0.00685440073575, -0.000388645649395, 0.842683345993
1491495823.72, -0.000298630277498, 0.00428937950748, -0.00238413735016, 0.538340079607, 0.00681850849866, -0.000364573730006, 0.842700025939
1491495823.75, -0.000351020245089, 0.00444451033082, -0.00250667914502, 0.538367789969, 0.00680915767808, -0.000363223789819, 0.842682399344
1491495823.78, -0.000365853900612, 0.00417158967102, -0.0023196792589, 0.538414200191, 0.0067563283966, -0.000365005780951, 0.842653171732
1491495823.78, -0.000365853900612, 0.00417158967102, -0.0023196792589, 0.538414200191, 0.0067563283966, -0.000365005780951, 0.842653171732
1491495823.81, -0.000408281052608, 0.00425943971623, -0.00238467862328, 0.538417195154, 0.00676379545808, -0.000397509432149, 0.84265118348
1491495823.84, -0.000463638700764, 0.00442440787102, -0.00248955066284, 0.538449857685, 0.00676124708443, -0.000406518873734, 0.842630328815
1491495823.87, -0.000512264257679, 0.0046226798109, -0.00258680711253, 0.53846626625, 0.00677240611516, -0.000435365443514, 0.842619739315
1491495823.9, -0.000560066395148, 0.00480503814874, -0.0026880628935, 0.538478457596, 0.00679629616215, -0.00043990550737, 0.842611753744
1491495823.93, -0.00135229802625, 0.00386197729342, -0.00267946903746, 0.538568908499, 0.00670463048963, -0.000410068841218, 0.842554692926
1491495823.96, -0.0014585864608, 0.003901327717, -0.00275253176728, 0.538556360495, 0.00671112119313, -0.000424833055451, 0.842562654608
1491495823.99, -0.00121265951534, 0.00392539392641, -0.00290159755696, 0.538575685945, 0.00666422167347, -0.000397453270513, 0.842550687312
1491495823.99, -0.00121265951534, 0.00392539392641, -0.00290159755696, 0.538575685945, 0.00666422167347, -0.000397453270513, 0.842550687312
1491495824.02, -0.00131024141236, 0.00403969209092, -0.00300162153347, 0.538576926713, 0.00668317509977, -0.000383996549039, 0.8425497503
1491495824.05, -0.00141051387694, 0.00414910565636, -0.00309549110508, 0.538546053564, 0.00671239591264, -0.000405076275771, 0.842569242167
1491495824.08, -0.00150951586995, 0.00423761808847, -0.00319231901303, 0.538558423024, 0.00671652148382, -0.000406812273336, 0.842561302122
1491495824.11, -0.00120222609525, 0.00478935331556, -0.00344841808806, 0.538579569273, 0.00672392475003, -0.000387314577028, 0.842547735375
1491495824.14, -0.00127875608589, 0.00484972818291, -0.00354913518592, 0.538574336059, 0.00673744295991, -0.000378925629775, 0.84255097639
1491495824.17, -0.000754545438364, 0.00316791503938, -0.00297759497128, 0.538457948939, 0.00681103191014, -0.000316948200117, 0.842624795868
1491495824.17, -0.000754545438364, 0.00316791503938, -0.00297759497128, 0.538457948939, 0.00681103191014, -0.000316948200117, 0.842624795868
1491495824.2, -0.000824921896625, 0.00329524479576, -0.00307673255618, 0.538427759104, 0.00684354384574, -0.000304117764642, 0.842643828463
1491495824.23, -0.000894789573926, 0.00340347682464, -0.00318643894892, 0.538415511508, 0.00684809301324, -0.000312371614723, 0.842651614259
1491495824.26, -0.000965809845624, 0.00348954039034, -0.0032965115574, 0.538431811293, 0.00685873361902, -0.000341025395999, 0.842641101575
1491495824.29, -0.00104580733711, 0.0035483986628, -0.00340122397079, 0.538444234117, 0.0068724393082, -0.00033637421625, 0.842633053693
1491495824.32, -0.00130229234016, 0.00320707225818, -0.00319896021899, 0.538510527349, 0.00682027123385, -0.000324431993361, 0.842591117078
1491495824.35, -0.00140106953071, 0.00333147785628, -0.0032858512539, 0.538501241236, 0.00683485707751, -0.000328905689591, 0.842596931953
1491495824.38, -0.00074363419379, 0.0032735298468, -0.00326274824172, 0.538533721344, 0.00685164518941, -0.000337803120884, 0.842576033259
1491495824.38, -0.00074363419379, 0.0032735298468, -0.00326274824172, 0.538533721344, 0.00685164518941, -0.000337803120884, 0.842576033259
1491495824.41, -0.000794435629692, 0.00335669646389, -0.00334658029178, 0.538544639861, 0.00685503678712, -0.000331744948561, 0.842569029393
1491495824.44, -0.000833397228438, 0.00341296424154, -0.00340788947417, 0.538557375092, 0.00683845917823, -0.000364896571831, 0.84256101029
1491495824.47, -0.000860697080645, 0.00344165060458, -0.0034542074472, 0.538534455383, 0.00685340127919, -0.000365655752561, 0.842575538188
1491495824.5, -0.000889097795637, 0.00350547548408, -0.00352345558246, 0.538549711776, 0.00686250681167, -0.00036135037193, 0.842565714572
1491495824.53, -0.000639392317657, 0.0036792220559, -0.00337407658716, 0.538526077556, 0.00688580020488, -0.000357665576418, 0.84258063212
1491495824.56, -0.000640819665754, 0.00379330277348, -0.00343548548748, 0.538550439487, 0.00686865621495, -0.000350372562381, 0.842565203963
1491495824.59, -0.000642126853125, 0.00387683149941, -0.00332384408342, 0.538601748274, 0.00683639811312, -0.000317649078951, 0.842532681572
1491495824.59, -0.000642126853125, 0.00387683149941, -0.00332384408342, 0.538601748274, 0.00683639811312, -0.000317649078951, 0.842532681572
1491495824.62, -0.000625005053073, 0.00394272032792, -0.00335199345489, 0.538600878259, 0.00685724646479, -0.000345774575968, 0.842533057244
1491495824.65, -0.000612510228293, 0.00398525406522, -0.00339144329575, 0.538607691505, 0.00683612487147, -0.000360177238959, 0.842528867352
1491495824.68, -0.000595755406988, 0.00409672190688, -0.00345227219726, 0.538587888625, 0.00683153711244, -0.000349988098182, 0.842541568016
1491495824.71, -0.000484562271186, 0.0042031431202, -0.00350646149362, 0.538559912654, 0.00684507047867, -0.00033992932685, 0.842559345056
1491495824.74, -0.000466025231739, 0.00429604717814, -0.00355706870308, 0.538564195839, 0.00687453766857, -0.000329015341265, 0.842556371669
1491495824.77, -0.00038098743884, 0.00396145629183, -0.00365168273838, 0.538603842589, 0.00685168051615, -0.000308543389731, 0.842531221987
1491495824.77, -0.00038098743884, 0.00396145629183, -0.00365168273838, 0.538603842589, 0.00685168051615, -0.000308543389731, 0.842531221987
1491495824.8, -0.000347386816631, 0.00397184316408, -0.0036855498326, 0.538605728361, 0.00688176584904, -0.000334226814445, 0.842529761473
1491495824.83, -0.000316768166664, 0.00398968232296, -0.00372615052853, 0.538581652799, 0.00689979065251, -0.000326757825683, 0.842545007336
1491495824.86, -0.000285339036365, 0.00407104309911, -0.003787099332, 0.53856421454, 0.00692159572403, -0.000319261937969, 0.842555978201
1491495824.89, -0.000242805432876, 0.00415343351842, -0.00383657841778, 0.53854424662, 0.00694187365728, -0.000328378817575, 0.842568571091
1491495824.92, 0.000295465980123, 0.00394344092564, -0.0037995031426, 0.538548945675, 0.00694728358969, -0.000286240527233, 0.842565538358
1491495824.95, 0.000367780439983, 0.00394790358995, -0.00384441610208, 0.538572579206, 0.00695356062005, -0.000264218510758, 0.842550387283
1491495824.98, 0.000441559394194, 0.00372271287023, -0.00370881673959, 0.538619535719, 0.00692385665626, -0.000249711473973, 0.842520619092
1491495824.98, 0.000441559394194, 0.00372271287023, -0.00370881673959, 0.538619535719, 0.00692385665626, -0.000249711473973, 0.842520619092
1491495825.01, 0.000515009862518, 0.00376744788492, -0.00374640993535, 0.538623220779, 0.00692412086939, -0.000244089260092, 0.842518262715
1491495825.04, 0.000601362633925, 0.00385357368392, -0.00378337776506, 0.538624060935, 0.006941786391, -0.000254642466631, 0.842517577111
1491495825.07, 0.000697419273649, 0.00392609081632, -0.00380970342858, 0.538627401119, 0.00694986409912, -0.000259904035675, 0.842515373511
1491495825.1, 0.000787022340448, 0.00396162066034, -0.00383626212177, 0.538629012378, 0.00692766387848, -0.000265848641637, 0.842514524398
1491495825.13, 0.00106914006719, 0.00354666489926, -0.00383978367963, 0.538636355398, 0.00692356250153, -0.000261501853039, 0.842509864953
1491495825.16, 0.00117214047916, 0.00353039673343, -0.00385483186296, 0.538622244145, 0.00693878244188, -0.000255528006172, 0.842518763065
1491495825.19, 0.000848350927114, 0.0038026767129, -0.00367917322653, 0.538604409501, 0.00690166819942, -0.000242995518634, 0.842530473036
1491495825.19, 0.000848350927114, 0.0038026767129, -0.00367917322653, 0.538604409501, 0.00690166819942, -0.000242995518634, 0.842530473036
1491495825.22, 0.000943793647197, 0.00387446148689, -0.00369339330134, 0.538603134401, 0.00692978947301, -0.000253386068903, 0.84253105428
1491495825.25, 0.00104496349127, 0.00391748255362, -0.00371092778334, 0.538642763388, 0.00691809061537, -0.00026320990995, 0.842505812557
1491495825.28, 0.00115116279604, 0.00393917133585, -0.00371605992829, 0.538631038925, 0.0069138462596, -0.000265030591238, 0.842513342562
1491495825.31, 0.00174678730109, 0.00365218944353, -0.00243286828805, 0.538568916176, 0.00682114504306, -0.000187481133376, 0.842553831728
1491495825.34, 0.00186420467245, 0.0037061319583, -0.00241738593952, 0.538572565076, 0.0068234527856, -0.00018134608813, 0.84255148196
1491495825.37, 0.00198523199322, 0.00380501974247, -0.00240524056925, 0.538567189121, 0.00684815382336, -0.000159860367527, 0.84255472228
1491495825.4, 0.00182312622293, 0.00380800562931, -0.00267675930806, 0.538602441905, 0.00684031627159, -0.000117584061057, 0.84253225803
1491495825.4, 0.00182312622293, 0.00380800562931, -0.00267675930806, 0.538602441905, 0.00684031627159, -0.000117584061057, 0.84253225803
1491495825.43, 0.00193876624306, 0.00383379070134, -0.00266247017973, 0.538608284543, 0.00683479733487, -0.000129633581502, 0.842528566021
1491495825.46, 0.00206057045883, 0.00382754581113, -0.00263963920167, 0.538614301457, 0.00684207898719, -0.000121100136564, 0.84252466169
1491495825.49, 0.0021930776108, 0.00379513769333, -0.00260207222037, 0.538619974968, 0.00685717490115, -0.000123450253134, 0.842520911597
1491495825.52, 0.00205824642665, 0.00346948212264, -0.00266700108606, 0.538638353975, 0.00682826975551, -7.31791456597e-05, 0.842509402324
1491495825.55, 0.00216517154621, 0.0034729700913, -0.0026592641959, 0.53867605879, 0.00679950919402, -8.94535047635e-05, 0.842485526498
1491495825.58, 0.00177527898367, 0.00370158576642, -0.00270012662804, 0.538677521238, 0.00678042383591, -7.22640764756e-05, 0.84248474689
1491495825.58, 0.00177527898367, 0.00370158576642, -0.00270012662804, 0.538677521238, 0.00678042383591, -7.22640764756e-05, 0.84248474689
1491495825.61, 0.00184949718528, 0.00364353445405, -0.00268717773285, 0.538681275139, 0.00679623151812, -6.50756310014e-05, 0.842482219882
1491495825.64, 0.00194191581581, 0.0035437979923, -0.00266580608996, 0.538663015387, 0.00679498081249, -5.62458947198e-05, 0.842493905572
1491495825.67, 0.00204103305214, 0.00346723706058, -0.00264810821662, 0.538660094605, 0.00679034296572, -6.60721882914e-05, 0.842495809697
1491495825.7, 0.0016146480662, 0.00361332706184, -0.00259238375385, 0.538679315681, 0.00676408999675, -6.32070115217e-05, 0.842483731563
1491495825.73, 0.00167023129697, 0.00360436979903, -0.00260036589364, 0.538669440743, 0.00678328299339, -6.32527061543e-05, 0.842489891144
1491495825.76, 0.00173147002293, 0.00356670410705, -0.00260801178481, 0.538683568544, 0.00680681640358, -8.92300362662e-05, 0.842480665814
1491495825.79, 0.00123170698781, 0.00340622966787, -0.00267771960957, 0.538688267284, 0.00681167128032, -6.78431740175e-05, 0.842477624167
1491495825.79, 0.00123170698781, 0.00340622966787, -0.00267771960957, 0.538688267284, 0.00681167128032, -6.78431740175e-05, 0.842477624167
1491495825.82, 0.00125655807248, 0.00328587457914, -0.00268327111297, 0.538689806747, 0.0068285319269, -6.9845170749e-05, 0.842476503162
1491495825.85, 0.00127963907849, 0.00324466810439, -0.00270517067225, 0.53866893496, 0.00684363769708, -7.72262072963e-05, 0.84248972526
1491495825.88, 0.00129519432018, 0.00323388570977, -0.00272956128035, 0.538688465388, 0.00685106365492, -8.14483060942e-05, 0.842477176872
1491495825.91, 0.00130415795686, 0.00319633800322, -0.00275206664048, 0.538683380436, 0.00686969861676, -7.78178399403e-05, 0.842480276818
1491495825.94, 0.00135038555388, 0.00341426572067, -0.00266591611533, 0.538695639419, 0.00684814640432, -4.17123155317e-05, 0.842472616304
1491495825.97, 0.00135270126915, 0.00333290257594, -0.0026762080435, 0.538677117158, 0.00687011469138, -3.03588503157e-05, 0.84248428119
1491495826.0, 0.00194332981887, 0.00318312384556, -0.00289422533904, 0.538684706289, 0.00688175565308, -1.59516148135e-06, 0.842479334255
1491495826.03, 0.00197814906786, 0.00317829932686, -0.00294448239643, 0.538677157003, 0.00690573932366, 9.48573371795e-07, 0.842483965003
1491495826.06, 0.00201537857562, 0.00317412224668, -0.0029983350433, 0.538683056278, 0.00691852330671, -4.26311997825e-06, 0.84248008813
1491495826.09, 0.00206258696218, 0.00314563818015, -0.00304510579485, 0.538691292004, 0.00691262444758, -2.09948780986e-05, 0.842474870309
1491495826.12, 0.00185987839803, 0.00301637853299, -0.0032926989534, 0.538713394678, 0.00687309095458, -2.47922965035e-06, 0.842461060827
1491495826.15, 0.0018992655023, 0.00291697651303, -0.00335952669984, 0.538726747303, 0.00686813442021, -2.64290173091e-06, 0.842452562738
1491495826.18, 0.00190994332368, 0.00327867053751, -0.00321732728047, 0.538724468587, 0.00683946110184, 1.5280351287e-05, 0.842454253051
1491495826.18, 0.00190994332368, 0.00327867053751, -0.00321732728047, 0.538724468587, 0.00683946110184, 1.5280351287e-05, 0.842454253051
1491495826.21, 0.00194577584134, 0.00330133150542, -0.00329996255347, 0.538733389771, 0.00681358927331, 1.91216791445e-06, 0.842448757933
1491495826.24, 0.00200033958832, 0.00330336144753, -0.00333589578969, 0.53871272304, 0.00683105822404, -9.72160723756e-07, 0.842461832178
1491495826.27, 0.00203717677576, 0.0032751736182, -0.00340181205183, 0.538737749807, 0.00682320336544, 2.65159051455e-05, 0.842445891512
1491495826.3, 0.002594179267, 0.00360676439856, -0.00296900602644, 0.538703036618, 0.00684008360442, 6.96359886149e-05, 0.842467949981
1491495826.33, 0.00267495841863, 0.00357265715499, -0.00298583129194, 0.538691029947, 0.00687237356382, 7.85349087195e-05, 0.842475363776
1491495826.36, 0.00274591026948, 0.0036406627529, -0.00303322254947, 0.538719761229, 0.00685206155005, 6.74144096027e-05, 0.842457158299
1491495826.39, 0.00243667151176, 0.00379695186933, -0.00253846234349, 0.538652230798, 0.0068059260506, 8.26787730598e-05, 0.842500710261
1491495826.42, 0.00250879853711, 0.00387806003282, -0.00255362864245, 0.538632957553, 0.00684362805602, 7.5290291817e-05, 0.842512727574
1491495826.45, 0.00256887502012, 0.00395393110086, -0.00254524632437, 0.538628033758, 0.00685425856525, 9.29733487823e-05, 0.842515787238
1491495826.48, 0.00263955611522, 0.00398578378898, -0.00253714129807, 0.538665541526, 0.00686116227449, 0.000106509301602, 0.842491749206
1491495826.51, 0.00308810944163, 0.00403641053714, -0.00254130924527, 0.538705519545, 0.00687862869978, 0.000136042195393, 0.842466040367
1491495826.54, 0.00317966625625, 0.00420492037647, -0.00255661357182, 0.538713329762, 0.00687146746365, 9.82204678927e-05, 0.842461109859
1491495826.57, 0.00327215294645, 0.00434767682293, -0.00255483589517, 0.538701431995, 0.00688057317976, 9.59946311764e-05, 0.842468643728
1491495826.6, 0.00301836155578, 0.00387019637626, -0.00286819469304, 0.538710992653, 0.0068651476162, 0.000129566441641, 0.842462651609
1491495826.63, 0.00308825417558, 0.00394619196587, -0.00287665864924, 0.538702294979, 0.00686375322213, 0.00015111828309, 0.842468221026
1491495826.66, 0.0031734410627, 0.00401185916832, -0.0028845762095, 0.538690831135, 0.00688338033297, 0.000163958319868, 0.842475388747
1491495826.69, 0.00327237420608, 0.00414709455888, -0.00290674622676, 0.538710274997, 0.00690340445975, 0.000158089576366, 0.842462793023
1491495826.72, 0.00321082489598, 0.00413335062962, -0.00323093729299, 0.538774180142, 0.00686234946816, 0.000165694806088, 0.842422259629
1491495826.75, 0.00329854239827, 0.00427882552158, -0.00328174744593, 0.538783114376, 0.0068611188904, 0.000165088060927, 0.842416555783
1491495826.78, 0.00339301382304, 0.00440738774772, -0.00333659412311, 0.538800631258, 0.00686399715031, 0.000149745566328, 0.842405331699
1491495826.81, 0.0034206127527, 0.00445534782748, -0.00345198362725, 0.538799648236, 0.00686532398127, 0.00015875055033, 0.842405947976
1491495826.84, 0.00351630923101, 0.00453312235121, -0.00350315283979, 0.538831124801, 0.00684888086064, 0.000153994601477, 0.842385949588
1491495826.87, 0.00361328559166, 0.00469361354356, -0.00356719252385, 0.538858409636, 0.00682655584642, 0.000158361204685, 0.842368676662
1491495826.9, 0.00263211599992, 0.00462612714393, -0.0037839215512, 0.538857331783, 0.00680861827421, 0.000177624852327, 0.842369507491
1491495826.93, 0.00267266481423, 0.00473959049604, -0.00383849457718, 0.538834825946, 0.00682027211514, 0.000168328258806, 0.842383811514
1491495826.96, 0.00270954804702, 0.00481832610773, -0.00391075981927, 0.538873087139, 0.0068146618399, 0.000167324619359, 0.842359381941
1491495826.99, 0.0029092806385, 0.00422533554214, -0.00422377236969, 0.538831470331, 0.00684669680906, 0.000187411236291, 0.842385739552
1491495827.02, 0.00295163623944, 0.0042929680654, -0.00431214802176, 0.538867566449, 0.00685242880566, 0.000194113314051, 0.842362601478
1491495827.05, 0.00295080128581, 0.0044623757617, -0.00442338792501, 0.538861182154, 0.00686936622258, 0.000208826151542, 0.842366544069
1491495827.08, 0.00297665909614, 0.00462652616765, -0.00451629867714, 0.538838327854, 0.00689840464812, 0.000190766186116, 0.842380930493
1491495827.11, 0.0031969247372, 0.00469517234166, -0.00426191624336, 0.538866133862, 0.00692112784945, 0.00018655123675, 0.842362957973
1491495827.14, 0.00319633089813, 0.004785215106, -0.00433534940863, 0.538889078992, 0.00690052859231, 0.00018912552977, 0.842348447781
1491495827.17, 0.00321473702662, 0.00486692109509, -0.00438306576286, 0.538877058286, 0.00693914737638, 0.000169408453026, 0.842355824808
1491495827.2, 0.00367756927222, 0.00459284533891, -0.004451781554, 0.538871506029, 0.00695583519753, 0.000174658640442, 0.842359237998
1491495827.23, 0.00369497025163, 0.00471852046342, -0.00454098742508, 0.538889737596, 0.0069559273147, 0.000187191508367, 0.842347571225
1491495827.26, 0.00330904348661, 0.00405082448654, -0.00497881822991, 0.538919950937, 0.00696727663933, 0.00017575032971, 0.842328150218
1491495827.26, 0.00330904348661, 0.00405082448654, -0.00497881822991, 0.538919950937, 0.00696727663933, 0.00017575032971, 0.842328150218
1491495827.29, 0.0033043035926, 0.00407148566872, -0.00505887842589, 0.538915414101, 0.00697921370077, 0.000162842928667, 0.842330956633
1491495827.32, 0.00331187025138, 0.0040292466601, -0.00514118276847, 0.538929568417, 0.00697163937056, 0.000175139238525, 0.842321960925
1491495827.35, 0.00331874901399, 0.00401942475344, -0.00522212588344, 0.538963398471, 0.00697010765021, 0.000170799438947, 0.842300328586
1491495827.38, 0.00332303432492, 0.00409066957045, -0.00532610052587, 0.538977605064, 0.00695319550824, 0.00017734192333, 0.842291376462
1491495827.41, 0.00313413513515, 0.00385560240505, -0.00538277846017, 0.538994329225, 0.00695387582884, 0.000187381281052, 0.842280666739
1491495827.44, 0.00313693417861, 0.00385884560374, -0.00545855250483, 0.538985546648, 0.00695815931747, 0.000181600897383, 0.842286252734
1491495827.47, 0.00313577385545, 0.00381581970348, -0.0055556469338, 0.538986499566, 0.00693182964238, 0.000189771492523, 0.842285858251
1491495827.5, 0.000936903939364, 0.00395546750902, -0.00355464851647, 0.53884004945, 0.00680291692401, 0.000114325945023, 0.842380619649
1491495827.53, 0.00089120560358, 0.00397673057002, -0.00361359303386, 0.53883758652, 0.00680418277128, 0.000117358266846, 0.842382184449